TimeCDT,TemperatureF,Dew PointF,Humidity,Sea Level PressureIn,VisibilityMPH,Wind Direction,Wind SpeedMPH,Gust SpeedMPH,PrecipitationIn,Events,Conditions,WindDirDegrees,DateUTC
12:52 AM,34.0,27.0,75,30.10,10.0,South,9.2,-,N/A,,Clear,170,2013-03-15 05:52:00
1:52 AM,34.0,27.0,75,30.07,10.0,South,10.4,-,N/A,,Clear,180,2013-03-15 06:52:00
2:52 AM,33.1,27.0,78,30.06,10.0,South,3.5,-,N/A,,Clear,190,2013-03-15 07:52:00
3:52 AM,30.9,27.0,85,30.03,10.0,South,4.6,-,N/A,,Clear,170,2013-03-15 08:52:00
4:52 AM,30.9,27.0,85,29.99,10.0,SSE,4.6,-,N/A,,Clear,150,2013-03-15 09:52:00
5:52 AM,30.9,27.0,85,30.00,10.0,Calm,Calm,-,N/A,,Clear,0,2013-03-15 10:52:00
6:52 AM,30.9,28.0,89,30.00,10.0,SSW,3.5,-,N/A,,Clear,200,2013-03-15 11:52:00
7:52 AM,30.9,28.0,89,30.00,8.0,Calm,Calm,-,N/A,,Clear,0,2013-03-15 12:52:00
8:52 AM,35.1,30.0,82,30.00,9.0,WSW,3.5,-,N/A,,Clear,250,2013-03-15 13:52:00
9:52 AM,41.0,33.1,73,29.99,10.0,WSW,4.6,-,N/A,,Clear,250,2013-03-15 14:52:00
10:52 AM,48.0,35.1,61,29.99,10.0,Calm,Calm,-,N/A,,Clear,0,2013-03-15 15:52:00
11:52 AM,55.0,37.0,51,29.96,10.0,Calm,Calm,-,N/A,,Clear,0,2013-03-15 16:52:00
12:52 PM,57.0,39.0,51,29.91,10.0,Variable,6.9,-,N/A,,Clear,0,2013-03-15 17:52:00
1:52 PM,60.1,41.0,49,29.89,10.0,SSW,6.9,-,N/A,,Clear,210,2013-03-15 18:52:00
2:52 PM,61.0,41.0,48,29.83,10.0,SSW,5.8,-,N/A,,Partly Cloudy,210,2013-03-15 19:52:00
3:52 PM,61.0,43.0,52,29.79,10.0,SSE,9.2,-,N/A,,Partly Cloudy,150,2013-03-15 20:52:00
4:52 PM,60.1,43.0,53,29.76,10.0,SSE,9.2,-,N/A,,Mostly Cloudy,150,2013-03-15 21:52:00
5:52 PM,59.0,44.1,58,29.71,10.0,SE,13.8,-,N/A,,Scattered Clouds,140,2013-03-15 22:52:00
6:52 PM,55.9,44.1,64,29.73,10.0,ESE,5.8,-,N/A,,Clear,110,2013-03-15 23:52:00
7:52 PM,53.1,44.1,71,29.71,10.0,ENE,4.6,-,N/A,,Clear,70,2013-03-16 00:52:00
8:52 PM,52.0,44.1,74,29.71,10.0,East,5.8,-,N/A,,Clear,80,2013-03-16 01:52:00
9:52 PM,51.1,44.1,77,29.69,10.0,East,6.9,-,N/A,,Clear,100,2013-03-16 02:52:00
10:52 PM,48.9,43.0,80,29.68,10.0,East,4.6,-,N/A,,Clear,100,2013-03-16 03:52:00
11:52 PM,46.9,43.0,86,29.66,10.0,Variable,3.5,-,N/A,,Clear,0,2013-03-16 04:52:00